Regional Weather Roundup
Issued by NWS

Home | Current Version | Previous Version | Graphics & Text | Print | Product List | Glossary On
Versions: 1 2 3 4 5 6 7 8 9 10 11 12 13 14 15 16 17 18 19 20 21 22 23 24 25 26 27 28 29 30 31 32 33 34 35 36 37 38 39 40 41 42 43 44 45 46 47 48 49 50
217
ASUS43 KTOP 030808
RWRKS

WEATHER ROUNDUP FOR KANSAS
NATIONAL WEATHER SERVICE GOODLAND KS
300 AM CDT TUE MAY 03 2016

NOTE:  "FAIR" INDICATES FEW OR NO CLOUDS BELOW 12,000 FEET WITH NO
SIGNIFICANT WEATHER AND/OR OBSTRUCTIONS TO VISIBILITY.

KSZ001>006-013>018-027>032-041>047-030900-
NORTHWEST KANSAS

CITY           SKY/WX    TMP DP  RH WIND       PRES   REMARKS
GOODLAND       CLOUDY    49  28  44 W13       30.02F
HAYS           CLOUDY    46  36  66 S6        30.03S
HILL CITY      PTCLDY    45  39  79 CALM      30.01F
RUSSELL        CLEAR     45  39  79 S10       30.01F
$$

KSZ061>065-074>080-084>089-030900-
SOUTHWEST KANSAS

CITY           SKY/WX    TMP DP  RH WIND       PRES   REMARKS
DODGE CITY     CLEAR     46  35  65 SW10      30.05F
ELKHART          N/A     48  36  63 S7          N/A
GARDEN CITY    CLOUDY    44  35  70 NW7       30.05F
GREAT BEND     PTCLDY    43  36  75 S6        30.04F
LIBERAL        CLEAR     43  34  70 SW7       30.08F
PRATT          MOCLDY    42  38  86 SW7       30.05F
$$

KSZ066>073-081>083-090>101-030900-
SOUTHEAST KANSAS

CITY           SKY/WX    TMP DP  RH WIND       PRES   REMARKS
CHANUTE        PTCLDY    43  41  93 CALM      30.07F FOG
COFFEYVILLE    PTCLDY    42  42 100 CALM      30.07F
HUTCHINSON     CLEAR     42  39  89 CALM      30.06S
MEDICINE LODGE   N/A     47  40  76 SE3       30.05F
NEWTON         CLEAR     45  36  70 S5        30.08S
PARSONS        CLEAR     41  40  96 CALM      30.08F
WICHITA INTL   PTCLDY    47  40  76 CALM      30.06S
WICHITA JABRA  PTCLDY    46  41  82 SW3       30.06F
WINFIELD       PTCLDY    42  40  92 CALM      30.20F
$$

KSZ007>012-019>026-033>040-048>060-102>105-030900-
NORTHEAST KANSAS

CITY           SKY/WX    TMP DP  RH WIND       PRES   REMARKS
CONCORDIA      MOCLDY    42  36  79 NE3       30.05S
EMPORIA        PTCLDY    44  42  93 SE3       30.06F
LAWRENCE       PTCLDY    39  38  96 CALM      30.07S FOG
MANHATTAN      MOCLDY    44  40  85 CALM      30.06S
MARYSVILLE     CLOUDY    43  43 100 S3        30.06S
OLATHE IND     CLEAR     44  42  93 CALM      30.07S
OLATHE EXE     CLEAR     45  42  89 W5        30.06F
SALINA         PTCLDY    44  40  85 CALM      30.06S
TOPEKA BILLARD CLEAR     42  40  92 CALM      30.07S FOG
TOPEKA FORBES  CLEAR     44  41  89 CALM      30.06S
$$




USA.gov is the U.S. government's official web portal to all federal, state and local government web resources and services.